Location: *
(46.0770°N, 1.6444°E)
Time: 00:32:54
(UTC+00:00)

YAOGAN 1 - Pass Details

Date: 16 September 2019
Orbit: 619 x 621 km, 98.0° (Epoch: 14 October)

Event Time Altitude Azimuth Distance (km) Brightness Sun altitude
Rises 18:50:01 0° 185° (S) 2,884 5.9 -8.8°
Reaches altitude 10° 18:52:19 10° 194° (SSW) 1,983 5.2 -9.2°
Maximum altitude 18:56:21 38° 262° (W) 956 4.2 -9.8°
Drops below altitude 10° 19:00:24 10° 331° (NNW) 1,998 5.8 -10.5°
Sets 19:02:44 0° 340° (NNW) 2,909 6.5 -10.9°
